Wind_Speed
15 30 30 29 29 29 29 28 28 32 35 34 34 34 34 33 30 28 27 26 25 23 21 21 20 19 18 19 21 22 20 21 21 20 20 20 20 19 19 19 19 19 18
22 32 31 30 30 30 28 28 28 30 33 34 34 33 33 31 29 28 26 25 23 22 21 22 21 20 21 22 22 23 22 23 22 20 21 21 20 20 20 20 19 19 18
23 34 32 30 29 29 29 29 29 29 31 33 34 34 33 31 28 27 24 23 22 22 22 23 23 22 23 24 24 23 22 22 21 21 22 21 20 18 19 18 20 20 18
24 33 33 30 29 27 27 28 29 30 31 34 34 34 32 30 29 27 25 24 23 21 21 22 23 24 25 26 26 26 25 23 23 24 24 22 19 18 19 19 19 18 18
28 34 35 33 30 29 28 28 29 31 32 33 33 32 31 30 28 26 24 23 23 22 21 21 22 22 24 26 27 26 25 24 24 23 23 20 19 16 18 18 19 18 17
29 35 36 36 33 31 30 29 29 29 31 32 32 32 30 29 27 25 24 23 23 21 22 23 22 21 23 25 27 27 24 25 26 24 22 19 17 15 16 18 19 19 18
31 34 35 34 33 32 31 30 30 29 30 31 33 33 31 28 26 25 24 23 23 22 23 21 22 22 22 24 27 28 26 25 24 24 23 22 20 18 16 18 19 18 18
30 32 33 34 35 34 33 32 31 31 31 32 32 32 31 30 28 26 23 22 22 22 23 23 22 23 22 23 28 29 29 27 25 24 25 21 18 18 16 16 17 17 18
26 28 30 31 30 30 32 33 32 32 32 32 33 33 31 30 28 27 25 24 25 24 22 22 24 24 24 25 27 28 27 24 24 25 23 22 19 18 17 17 17 18 17
20 25 28 30 31 31 31 32 34 34 34 35 36 35 34 32 30 28 26 24 21 21 22 23 23 25 25 26 27 25 25 23 25 25 23 20 16 18 19 18 18 18 17
19 23 28 31 32 31 30 32 33 36 37 37 36 35 33 32 32 30 27 25 24 24 22 23 24 24 28 29 27 26 24 23 24 25 23 18 18 19 19 19 19 18 19
24 28 29 32 31 28 29 30 34 34 36 36 37 37 36 36 35 32 29 27 27 27 27 28 26 24 29 32 30 28 26 25 24 23 22 23 21 20 21 20 19 18 18
31 28 35 36 34 33 33 32 31 31 36 36 36 37 36 35 35 32 30 28 26 27 29 29 29 30 31 34 33 30 28 26 23 24 22 22 22 21 21 21 20 18 18
30 30 27 33 31 28 26 32 32 31 34 34 34 35 39 40 40 37 36 35 33 31 32 34 34 35 35 34 33 32 29 27 24 23 23 23 22 21 20 20 20 20 20
29 35 34 34 38 33 32 31 35 33 31 37 37 39 40 40 39 40 39 37 36 35 37 37 36 37 36 35 33 33 32 29 27 26 25 23 23 21 20 19 20 19 20
34 35 36 33 33 32 36 30 35 33 35 35 38 37 41 40 41 41 40 44 42 38 38 39 41 41 39 37 35 34 33 32 30 27 25 22 22 22 21 19 18 19 19
32 29 33 32 32 36 37 34 31 35 34 36 42 43 43 42 44 45 40 39 40 40 38 40 40 41 40 38 36 35 34 34 33 31 29 24 21 22 23 18 16 17 19
19 31 32 31 33 37 37 39 33 35 37 36 38 39 40 44 43 40 37 27 34 38 40 42 42 39 39 40 40 37 36 35 34 34 31 28 24 22 20 19 17 16 17
15 22 31 31 34 34 31 30 30 30 31 35 37 39 40 42 42 40 31 31 25 34 35 40 39 41 39 35 36 38 36 35 34 35 33 30 27 25 21 18 18 16 15
20 6 17 25 26 30 30 28 28 27 30 34 37 35 34 40 43 44 33 32 33 28 32 16 19 27 35 38 33 32 32 33 33 34 32 30 26 24 25 25 22 18 17
28 22 11 6 15 22 24 23 24 26 26 30 31 33 32 33 38 40 28 31 35 35 37 35 28 10 17 34 31 26 22 23 31 32 33 31 30 27 26 26 25 21 17
29 26 24 18 11 4 15 19 12 17 15 20 21 22 26 26 30 34 36 31 33 31 34 41 41 29 18 32 18 15 4 6 13 22 29 31 31 30 28 26 26 25 23
27 25 20 18 20 20 15 5 5 4 7 7 15 18 18 21 25 32 37 40 38 44 39 45 45 47 29 31 32 10 4 4 9 10 18 24 27 28 29 28 26 26 26
20 17 16 14 13 12 11 13 9 4 3 6 8 12 15 17 25 30 35 40 37 38 37 39 40 42 35 31 31 19 14 19 6 4 11 18 23 26 27 25 26 26 25
27 22 17 13 12 9 6 4 4 3 6 8 13 14 15 14 21 23 28 34 35 31 30 36 37 37 39 39 37 14 14 19 19 9 7 11 20 24 25 27 25 25 25
27 26 24 21 16 14 11 9 7 8 11 11 14 16 13 12 17 20 21 28 33 34 38 44 44 47 41 33 31 29 21 12 17 13 5 20 17 17 24 25 27 26 24
Wind_Direction
166 168 170 174 176 171 165 154 152 156 162 162 160 159 158 157 155 153 153 153 153 149 143 139 139 139 136 133 130 126 125 117 119 112 106 101 99 97 100 101 100 99 98
167 171 173 174 176 173 166 159 154 154 159 161 162 162 159 158 157 157 157 157 155 149 143 143 144 142 141 136 134 132 130 125 122 114 109 102 100 98 101 100 99 99 99
170 172 174 176 177 175 170 165 159 156 160 163 163 163 161 160 161 161 162 161 158 150 151 151 151 148 145 141 139 137 133 131 127 120 112 106 100 99 101 99 96 95 98
180 176 177 179 180 180 176 169 165 162 161 165 165 165 165 165 166 166 165 165 162 151 153 153 154 153 150 150 146 142 139 135 129 123 115 112 110 104 101 101 100 99 95
181 182 183 182 184 184 183 178 172 168 168 168 169 170 170 170 170 167 168 169 162 157 155 157 158 157 154 155 151 147 145 140 134 126 122 118 112 112 111 107 105 102 101
183 185 187 187 189 190 188 185 181 176 174 174 174 176 176 175 172 173 173 171 162 158 155 163 162 163 162 159 157 154 150 147 143 135 131 119 119 116 109 106 105 102 101
181 186 189 191 192 194 194 193 187 184 182 180 179 179 179 178 178 177 177 171 162 160 168 165 165 168 166 162 163 160 157 151 144 137 131 130 123 117 115 113 114 111 110
184 188 192 195 196 198 198 198 196 193 189 185 185 185 184 183 181 181 179 168 163 173 168 166 169 169 166 164 163 161 156 153 145 140 135 132 132 121 119 117 116 116 115
192 192 194 197 201 203 202 203 201 198 196 193 191 190 189 188 185 184 177 172 174 176 171 171 170 169 166 163 162 160 155 152 144 138 135 130 137 126 126 121 116 114 112
200 199 197 199 201 204 206 207 205 202 201 199 197 195 193 191 188 185 180 177 177 175 173 173 175 172 169 166 163 160 157 154 146 140 137 132 135 132 127 125 122 118 117
208 208 204 203 204 205 206 207 208 207 204 203 201 199 195 192 190 188 186 182 178 176 178 177 178 178 174 169 168 165 161 154 150 146 142 139 130 128 126 128 121 115 110
209 209 211 210 205 202 206 208 209 210 206 206 204 201 199 197 194 191 191 192 186 179 178 176 177 180 175 173 170 169 163 158 152 144 138 136 131 131 128 121 116 113 110
210 208 209 210 206 203 205 207 208 208 210 208 208 206 202 200 197 196 193 193 188 184 176 176 176 176 174 177 171 168 163 157 151 145 143 137 133 131 129 127 121 117 112
215 214 210 212 207 204 205 210 208 207 209 209 207 205 205 201 201 201 199 194 191 187 182 178 179 181 181 178 172 166 161 156 154 145 140 140 137 133 133 128 124 121 116
221 222 216 210 209 204 204 209 211 208 207 211 210 209 209 205 201 202 203 200 197 191 188 181 181 181 183 177 173 168 162 157 154 148 145 146 141 137 135 131 127 123 121
232 225 221 211 207 203 207 208 212 211 212 211 213 213 209 209 207 206 202 202 198 194 190 185 184 181 181 178 172 169 163 158 154 149 144 142 145 142 138 134 131 128 125
250 241 234 217 211 210 211 212 212 214 211 217 220 220 216 213 214 211 207 204 199 192 190 186 183 180 179 176 172 169 164 160 156 151 148 146 148 145 141 138 131 127 126
258 244 237 220 216 215 211 213 211 215 214 217 219 218 216 217 218 210 208 208 202 194 190 188 183 176 173 173 170 169 165 162 158 154 152 152 152 152 148 145 138 132 130
300 250 238 227 220 220 219 217 218 218 214 225 227 225 221 221 223 215 207 210 213 192 187 189 180 176 168 165 163 165 163 161 159 156 155 155 154 154 153 153 143 141 137
31 297 240 230 222 220 218 219 217 218 222 225 228 223 217 222 234 228 206 213 205 202 179 191 186 176 168 158 149 148 156 160 159 158 157 155 158 160 155 153 146 145 142
40 40 41 251 224 228 218 216 205 213 221 228 227 231 227 223 225 230 213 197 203 196 182 190 197 204 164 150 132 116 125 149 154 154 155 154 157 159 157 153 148 146 148
38 45 51 49 60 182 226 211 204 204 233 237 241 235 226 220 221 225 223 209 204 193 182 181 178 169 176 166 162 126 129 96 137 152 156 157 155 157 159 158 154 152 149
21 19 29 43 50 48 40 41 112 123 253 265 262 257 243 237 237 228 221 218 215 211 202 188 183 181 172 192 175 144 149 170 134 146 158 160 156 154 158 158 157 158 155
16 24 29 27 40 52 51 47 37 22 269 266 285 281 267 263 254 248 226 218 216 203 187 181 184 184 177 183 197 179 192 145 158 145 176 168 163 163 164 168 167 164 158
15 17 20 26 33 27 24 61 102 240 285 298 282 273 260 261 250 238 224 226 210 202 198 182 181 183 186 194 194 176 155 153 165 149 154 166 170 173 175 178 174 170 163
2 360 354 351 346 345 343 330 305 276 268 256 248 250 259 259 253 243 220 219 215 215 196 197 190 191 187 194 191 192 185 178 174 156 146 165 151 169 173 172 172 174 176
Height
749 751 755 759 765 770 771 771 775 777 778 780 783 786 788 790 794 796 798 802 804 806 808 811 813 816 817 818 821 823 825 826 827 829 830 831 831 832 833 833 834 834 836
747 752 756 759 763 768 772 774 776 778 780 783 786 788 789 793 795 798 801 803 806 808 809 811 814 816 817 820 823 825 826 827 829 830 832 832 834 834 835 835 836 837 838
747 751 757 761 764 767 771 774 777 780 782 784 787 789 791 793 797 799 802 805 806 809 809 810 811 814 816 818 821 825 828 829 830 831 832 833 835 836 837 837 838 839 840
747 752 757 761 765 768 772 774 776 780 782 785 787 789 791 793 796 798 800 802 805 809 811 812 813 813 815 818 820 823 825 828 830 831 831 834 837 839 839 840 842 842 841
746 750 755 759 764 767 770 773 775 777 781 785 788 790 791 794 796 798 801 803 806 807 811 814 815 816 817 818 820 822 824 826 829 831 833 835 838 840 841 841 842 843 844
745 749 754 757 761 766 768 772 773 776 780 783 786 789 792 793 794 797 800 803 806 809 810 813 816 818 818 819 819 822 825 826 826 830 833 836 839 842 843 843 843 844 845
744 748 753 758 761 765 767 771 774 776 778 780 783 786 788 792 795 798 800 804 806 808 811 814 815 818 820 820 821 820 824 826 828 829 832 835 838 841 844 845 845 846 847
744 748 752 755 758 762 766 770 773 775 778 780 782 785 787 790 793 797 802 805 809 811 811 813 817 818 822 823 822 823 824 826 827 830 832 835 838 839 844 846 847 847 848
747 749 752 756 760 763 765 768 771 775 777 780 782 784 787 790 793 796 798 801 803 808 814 817 816 819 821 824 827 826 826 828 830 832 834 836 837 839 842 845 848 849 851
748 749 751 754 757 760 763 766 768 771 773 775 777 779 782 786 790 793 796 799 806 811 812 814 817 817 820 825 827 831 829 830 832 833 836 838 841 840 841 845 847 849 851
748 749 750 751 753 757 760 763 764 766 768 771 774 778 781 784 787 790 794 797 799 803 811 815 818 819 819 822 827 828 832 834 834 834 837 839 842 843 844 846 848 850 852
741 743 747 749 751 755 758 760 763 765 768 771 772 775 777 779 783 787 791 793 795 797 802 807 813 819 820 821 823 827 830 834 835 837 838 839 842 844 845 848 850 852 854
732 736 736 740 743 748 751 755 759 762 765 767 771 774 776 780 785 788 790 795 799 800 799 804 808 814 817 819 821 824 828 833 837 837 840 841 843 845 847 848 850 853 855
730 732 737 739 742 746 751 753 754 758 761 764 766 768 771 773 779 785 788 788 790 797 798 798 802 807 813 816 820 821 827 830 836 837 841 843 844 846 850 851 851 853 855
726 726 729 732 734 739 744 748 750 751 755 759 762 763 766 773 777 780 784 787 788 791 792 793 798 803 810 814 818 819 823 828 835 838 841 844 846 848 850 853 854 855 856
721 721 725 728 732 735 738 742 744 747 749 754 758 761 763 767 771 774 774 775 777 787 790 790 793 797 805 811 815 819 821 824 830 837 841 846 847 848 851 855 857 856 857
722 724 722 727 729 730 733 737 741 743 745 749 750 754 758 761 766 766 772 771 772 778 787 791 795 796 802 808 814 820 822 823 826 832 839 845 849 850 851 856 860 860 859
713 713 716 720 724 725 725 728 733 736 738 742 747 751 756 757 759 762 766 768 775 776 782 788 789 795 800 804 809 817 822 824 825 828 836 843 849 851 853 855 860 864 863
709 708 709 713 717 722 727 730 732 735 737 741 744 746 751 753 753 760 766 769 770 763 779 785 782 787 793 802 808 814 821 824 827 826 832 839 847 851 854 857 859 864 868
711 708 711 713 716 717 722 726 728 731 733 735 738 740 743 748 747 752 760 767 768 765 774 796 783 787 789 794 805 812 820 827 827 826 830 837 844 851 854 857 859 863 868
715 712 713 713 714 715 717 719 721 724 729 731 733 735 738 743 744 747 754 758 764 766 763 771 793 800 799 795 800 811 819 827 827 828 829 836 842 849 854 858 859 864 868
721 718 717 716 715 714 715 714 715 720 726 728 731 735 736 738 741 744 749 754 759 763 761 768 778 790 794 797 799 804 821 831 829 829 830 835 840 845 852 857 858 861 866
725 723 723 723 721 719 717 716 717 717 724 725 729 734 735 736 738 739 742 747 749 753 752 757 764 770 784 798 794 793 811 817 826 831 834 835 838 844 850 854 858 863 863
731 727 724 722 722 724 723 721 721 722 723 724 725 729 731 735 736 738 733 741 745 748 747 752 761 768 775 780 791 788 793 793 806 829 835 837 839 843 849 853 856 863 864
737 733 729 728 725 724 723 720 719 723 722 722 723 723 725 727 732 733 730 733 737 741 747 748 751 759 767 777 783 784 791 790 796 804 823 835 837 842 847 852 855 860 864
739 737 737 732 728 726 723 723 721 721 723 720 722 721 718 719 725 729 728 728 729 735 737 740 744 751 755 767 773 777 782 783 786 792 809 823 829 840 844 848 852 857 863